TimeCDT,TemperatureF,Dew PointF,Humidity,Sea Level PressureIn,VisibilityMPH,Wind Direction,Wind SpeedMPH,Gust SpeedMPH,PrecipitationIn,Events,Conditions,WindDirDegrees,DateUTC
12:15 AM,53.6,24.8,33,29.98,10.0,ESE,11.5,16.1,N/A,,Clear,120,2013-04-06 05:15:00
12:35 AM,53.6,24.8,33,29.98,10.0,ESE,11.5,-,N/A,,Clear,120,2013-04-06 05:35:00
12:55 AM,53.6,23.0,30,29.98,10.0,SE,9.2,-,N/A,,Clear,130,2013-04-06 05:55:00
1:15 AM,53.6,24.8,33,29.98,10.0,SE,11.5,-,N/A,,Clear,130,2013-04-06 06:15:00
1:35 AM,51.8,24.8,35,29.98,10.0,ESE,9.2,-,N/A,,Clear,120,2013-04-06 06:35:00
1:55 AM,51.8,24.8,35,29.97,10.0,ESE,9.2,-,N/A,,Clear,120,2013-04-06 06:55:00
2:15 AM,50.0,26.6,40,29.95,10.0,ESE,10.4,-,N/A,,Clear,120,2013-04-06 07:15:00
2:35 AM,50.0,26.6,40,29.95,10.0,SE,10.4,-,N/A,,Clear,130,2013-04-06 07:35:00
2:55 AM,50.0,26.6,40,29.94,10.0,SE,8.1,17.3,N/A,,Clear,140,2013-04-06 07:55:00
3:15 AM,51.8,26.6,38,29.94,10.0,SE,10.4,16.1,N/A,,Clear,140,2013-04-06 08:15:00
3:35 AM,51.8,26.6,38,29.93,10.0,SE,9.2,-,N/A,,Clear,140,2013-04-06 08:35:00
3:55 AM,51.8,28.4,41,29.92,10.0,SE,11.5,17.3,N/A,,Clear,140,2013-04-06 08:55:00
4:15 AM,51.8,28.4,41,29.92,10.0,SSE,8.1,-,N/A,,Clear,150,2013-04-06 09:15:00
4:35 AM,51.8,30.2,44,29.91,10.0,SSE,12.7,18.4,N/A,,Clear,150,2013-04-06 09:35:00
4:55 AM,51.8,30.2,44,29.90,10.0,SE,13.8,18.4,N/A,,Clear,140,2013-04-06 09:55:00
5:15 AM,51.8,30.2,44,29.90,10.0,SSE,12.7,17.3,N/A,,Clear,150,2013-04-06 10:15:00
5:35 AM,51.8,32.0,47,29.89,10.0,SSE,9.2,18.4,N/A,,Clear,150,2013-04-06 10:35:00
5:55 AM,51.8,32.0,47,29.89,10.0,SSE,11.5,17.3,N/A,,Clear,160,2013-04-06 10:55:00
6:15 AM,51.8,33.8,50,29.87,10.0,SSE,13.8,17.3,N/A,,Clear,150,2013-04-06 11:15:00
6:35 AM,51.8,33.8,50,29.87,10.0,South,12.7,24.2,N/A,,Scattered Clouds,170,2013-04-06 11:35:00
6:55 AM,51.8,33.8,50,29.88,10.0,South,6.9,16.1,N/A,,Clear,180,2013-04-06 11:55:00
7:15 AM,51.8,33.8,50,29.88,10.0,South,10.4,18.4,N/A,,Clear,180,2013-04-06 12:15:00
7:35 AM,53.6,33.8,47,29.87,10.0,South,16.1,-,N/A,,Clear,170,2013-04-06 12:35:00
7:55 AM,51.8,35.6,54,29.87,10.0,SSE,12.7,18.4,N/A,,Clear,160,2013-04-06 12:55:00
8:15 AM,53.6,33.8,47,29.85,10.0,SSE,12.7,18.4,N/A,,Clear,160,2013-04-06 13:15:00
8:35 AM,53.6,33.8,47,29.84,10.0,South,13.8,-,N/A,,Clear,170,2013-04-06 13:35:00
8:55 AM,55.4,33.8,44,29.83,10.0,SSE,11.5,19.6,N/A,,Clear,160,2013-04-06 13:55:00
9:15 AM,55.4,33.8,44,29.81,10.0,South,15.0,19.6,N/A,,Clear,170,2013-04-06 14:15:00
9:35 AM,60.8,33.8,36,29.78,10.0,South,15.0,24.2,N/A,,Clear,170,2013-04-06 14:35:00
9:55 AM,62.6,30.2,30,29.78,10.0,South,19.6,34.5,N/A,,Clear,180,2013-04-06 14:55:00
10:15 AM,62.6,30.2,30,29.77,10.0,South,23.0,28.8,N/A,,Clear,170,2013-04-06 15:15:00
10:35 AM,64.4,30.2,28,29.76,10.0,South,20.7,28.8,N/A,,Clear,190,2013-04-06 15:35:00
10:55 AM,64.4,30.2,28,29.76,10.0,South,19.6,28.8,N/A,,Clear,190,2013-04-06 15:55:00
11:15 AM,64.4,30.2,28,29.76,10.0,SSW,18.4,27.6,N/A,,Clear,200,2013-04-06 16:15:00
11:35 AM,64.4,30.2,28,29.75,10.0,South,19.6,25.3,N/A,,Clear,180,2013-04-06 16:35:00
11:55 AM,66.2,30.2,26,29.75,10.0,South,18.4,26.5,N/A,,Clear,190,2013-04-06 16:55:00
12:15 PM,66.2,32.0,28,29.74,10.0,South,17.3,21.9,N/A,,Clear,190,2013-04-06 17:15:00
12:35 PM,64.4,33.8,32,29.73,10.0,South,16.1,26.5,N/A,,Clear,190,2013-04-06 17:35:00
12:55 PM,66.2,33.8,30,29.71,10.0,South,19.6,24.2,N/A,,Clear,190,2013-04-06 17:55:00
1:15 PM,66.2,33.8,30,29.70,10.0,South,15.0,23.0,N/A,,Clear,190,2013-04-06 18:15:00
1:35 PM,66.2,33.8,30,29.69,10.0,SSW,18.4,28.8,N/A,,Clear,210,2013-04-06 18:35:00
1:55 PM,69.8,33.8,27,29.69,10.0,SSW,19.6,29.9,N/A,,Clear,200,2013-04-06 18:55:00
2:15 PM,69.8,33.8,27,29.67,10.0,SSW,21.9,25.3,N/A,,Clear,200,2013-04-06 19:15:00
2:35 PM,68.0,33.8,28,29.67,10.0,SSW,21.9,26.5,N/A,,Clear,200,2013-04-06 19:35:00
2:55 PM,66.2,33.8,30,29.66,10.0,SSW,20.7,27.6,N/A,,Clear,200,2013-04-06 19:55:00
3:15 PM,68.0,35.6,30,29.66,10.0,SSW,19.6,28.8,N/A,,Clear,210,2013-04-06 20:15:00
3:35 PM,66.2,35.6,32,29.65,10.0,SSW,16.1,27.6,N/A,,Clear,210,2013-04-06 20:35:00
3:55 PM,66.2,35.6,32,29.65,10.0,SSW,17.3,20.7,N/A,,Clear,210,2013-04-06 20:55:00
4:15 PM,68.0,37.4,33,29.64,10.0,SSW,12.7,21.9,N/A,,Scattered Clouds,200,2013-04-06 21:15:00
4:35 PM,68.0,37.4,33,29.64,10.0,SSW,18.4,33.4,N/A,,Mostly Cloudy,200,2013-04-06 21:35:00
4:55 PM,66.2,37.4,35,29.64,10.0,SSW,15.0,27.6,N/A,,Overcast,200,2013-04-06 21:55:00
5:15 PM,66.2,39.2,37,29.64,10.0,SSW,15.0,23.0,N/A,,Overcast,210,2013-04-06 22:15:00
5:35 PM,66.2,39.2,37,29.64,10.0,SSW,13.8,-,N/A,,Overcast,210,2013-04-06 22:35:00
5:55 PM,68.0,39.2,35,29.64,10.0,SSW,12.7,20.7,N/A,,Overcast,210,2013-04-06 22:55:00
6:15 PM,68.0,41.0,37,29.65,10.0,SW,12.7,19.6,N/A,,Overcast,220,2013-04-06 23:15:00
6:35 PM,68.0,42.8,40,29.65,10.0,SSW,10.4,16.1,N/A,,Overcast,210,2013-04-06 23:35:00
6:55 PM,68.0,42.8,40,29.65,10.0,SSW,9.2,-,N/A,,Mostly Cloudy,210,2013-04-06 23:55:00
7:15 PM,68.0,42.8,40,29.64,10.0,SSW,11.5,-,N/A,,Scattered Clouds,210,2013-04-07 00:15:00
7:35 PM,66.2,44.6,46,29.64,10.0,SSW,11.5,-,N/A,,Mostly Cloudy,210,2013-04-07 00:35:00
7:55 PM,66.2,44.6,46,29.64,10.0,SSW,11.5,-,N/A,Rain,Light Rain,210,2013-04-07 00:55:00
8:15 PM,66.2,44.6,46,29.65,10.0,SW,10.4,17.3,N/A,,Mostly Cloudy,220,2013-04-07 01:15:00
8:35 PM,66.2,44.6,46,29.66,10.0,SW,13.8,-,N/A,,Mostly Cloudy,220,2013-04-07 01:35:00
8:55 PM,66.2,44.6,46,29.68,10.0,West,12.7,23.0,N/A,,Scattered Clouds,260,2013-04-07 01:55:00
9:15 PM,64.4,39.2,40,29.69,10.0,West,18.4,24.2,N/A,,Clear,270,2013-04-07 02:15:00
9:35 PM,64.4,37.4,37,29.71,10.0,West,17.3,26.5,N/A,,Clear,270,2013-04-07 02:35:00
9:55 PM,62.6,39.2,42,29.73,10.0,WNW,18.4,31.1,N/A,,Clear,300,2013-04-07 02:55:00
10:15 PM,60.8,39.2,45,29.74,10.0,West,11.5,19.6,N/A,,Clear,280,2013-04-07 03:15:00
10:35 PM,60.8,39.2,45,29.74,10.0,WNW,8.1,-,N/A,,Clear,290,2013-04-07 03:35:00
10:55 PM,59.0,39.2,48,29.75,10.0,WNW,8.1,-,N/A,,Clear,290,2013-04-07 03:55:00
11:15 PM,57.2,39.2,51,29.75,10.0,WNW,8.1,-,N/A,,Clear,300,2013-04-07 04:15:00
11:35 PM,53.6,39.2,58,29.77,10.0,NW,4.6,-,N/A,,Clear,310,2013-04-07 04:35:00
11:55 PM,53.6,39.2,58,29.77,10.0,WNW,5.8,-,N/A,,Clear,300,2013-04-07 04:55:00